Regional Weather Roundup
Issued by NWS Cleveland, OH

Home | Current Version | Previous Version | Text Only | Print | Product List | Glossary Off
Versions: 1 2 3 4 5 6 7 8 9 10 11 12 13 14 15 16 17 18 19 20 21 22 23 24 25 26 27 28 29 30 31 32 33 34 35 36 37 38 39 40 41 42 43 44 45 46 47 48 49 50

000
ASUS41 KCLE 302102
RWRCLE
OHIO REGIONAL WEATHER ROUNDUP
NATIONAL WEATHER SERVICE CLEVELAND, OH
500 PM EDT SUN APR 30 2017

NOTE: "FAIR" INDICATES FEW OR NO CLOUDS BELOW 12,000 FEET WITH NO
SIGNIFICANT WEATHER AND/OR OBSTRUCTIONS TO VISIBILITY.

OHZ001>008-015>018-024>027-034-035-043-044-302200-
   NORTHWEST OHIO

CITY           SKY/WX    TMP DP  RH WIND       PRES   REMARKS
DEFIANCE       LGT RAIN  67  62  84 SW12G20   29.82F
FINDLAY        CLOUDY    76  64  66 S14       29.80F
TOLEDO EXPRESS CLOUDY    57  54  89 E5        29.82F
TOLEDO EXEC    CLOUDY    56  52  86 NE6       29.83F
LIMA           CLOUDY    76  66  71 S9        29.81F
$$

OHZ009>014-019>023-028>033-038-089-302200-
   NORTHEAST OHIO

CITY           SKY/WX    TMP DP  RH WIND       PRES   REMARKS
CLE-HOPKINS    PTSUNNY   83  60  45 SW17G30   29.87F
CLE-LAKEFRONT  PTSUNNY   58  53  84 NE10      29.85S
CUY CO. ARPT   CLOUDY    77  61  57 NW7       29.87F
LORAIN-ELYRIA  MOSUNNY   80  63  55 SW17G26   29.85F
ASHTABULA      PTSUNNY   77  66  68 VRB6      29.88S
AKRON-CANTON   PTSUNNY   81  63  54 SW15G23   29.90F
WOOSTER        CLOUDY    79  63  57 SW17G30   29.88F
MANSFIELD      MOSUNNY   80  64  58 S17G35    29.87F
YOUNGSTOWN     PTSUNNY   78  63  59 S10G23    29.92F
$$

OHZ042-051>053-060>062-070>072-077>081-302200-
  SOUTHWEST OHIO

CITY           SKY/WX    TMP DP  RH WIND       PRES   REMARKS
CINC-COVINGTON CLOUDY    81  64  56 S18G29    29.82F
CINC-LUNKEN    CLOUDY    81  67  62 S14G23    29.81F
HAMILTON       PTSUNNY   82  65  56 S12G23    29.81F
DAYTON         PTSUNNY   79  64  60 S20       29.82F
WRIGHT-PAT AFB MOSUNNY   81  68  64 S14G25    29.82F
DAYTON GENERAL CLOUDY    80  66  62 S17G25    29.82F
WILMINGTON     CLOUDY    80  65  59 S21G31    29.84F
$$

OHZ036-037-039>041-045>050-054>059-063>069-073>076-082>088-302200-
  CENTRAL AND SOUTHEAST OHIO

CITY           SKY/WX    TMP DP  RH WIND       PRES   REMARKS
COLUMBUS       PTSUNNY   85  65  51 S20G28    29.86F
OSU AIRPORT    CLOUDY    82  67  60 S13G21    29.85F
BOLTON FIELD   PTSUNNY   82  66  57 S20G25    29.87F
RICKENBACK AFB NOT AVBL
NEWARK         MOSUNNY   81  68  64 S6        29.87F
MARION         MOSUNNY   81  64  56 SW24G37   29.84F
LANCASTER      PTSUNNY   79  66  64 S9        29.89F
ZANESVILLE     SUNNY     83  64  52 VRB3      29.89F
NEW PHILLY     NOT AVBL
$$



USA.gov is the U.S. government's official web portal to all federal, state and local government web resources and services.